This is the latest recevied weather packets stored in our database for station/object NO9B. If no packets are shown the sender has not sent any weather packets the latest 10 day(s).
| Time | Temp. | Humidity | Pressure | Rain* | Wind** | Luminosity | Snow |
|---|---|---|---|---|---|---|---|
| 1788476956 | 25.56° C | 82% | 1014.6 hPa | 0 mm | - | 14 W/m² | - |
| 1788476652 | 25.56° C | 82% | 1014.5 hPa | 0 mm | - | 15 W/m² | - |
| 1788476348 | 25.56° C | 82% | 1014.7 hPa | 0 mm | - | 18 W/m² | - |
| 1788476044 | 26.11° C | 80% | 1014.7 hPa | 0 mm | - | 25 W/m² | - |
| 1788475740 | 26.11° C | 80% | 1014.6 hPa | 0 mm | - | 30 W/m² | - |
| 1788475435 | 26.11° C | 82% | 1014.5 hPa | 0 mm | - | 44 W/m² | - |
| 1788475131 | 25.56° C | 82% | 1014.7 hPa | 0 mm | - | 68 W/m² | - |
| 1788474830 | 26.11° C | 82% | 1014.6 hPa | 0 mm | - | 51 W/m² | - |
| 1788474525 | 26.11° C | 82% | 1014.4 hPa | 0 mm | - | 31 W/m² | - |
| 1788474224 | 26.11° C | 82% | 1014.5 hPa | 0 mm | - | 46 W/m² | - |
| 1788473919 | 26.11° C | 80% | 1014.5 hPa | 0 mm | - | 61 W/m² | - |
| 1788473618 | 26.11° C | 80% | 1014.5 hPa | 0 mm | - | 60 W/m² | - |
| 1788473316 | 26.67° C | 81% | 1014.6 hPa | 0 mm | - | 59 W/m² | - |
| 1788473011 | 26.67° C | 81% | 1014.9 hPa | 0 mm | - | 62 W/m² | - |
| 1788472709 | 26.67° C | 81% | 1014.8 hPa | 0 mm | - | 58 W/m² | - |
| 1788472406 | 27.22° C | 79% | 1014.8 hPa | 0 mm | - | 69 W/m² | - |
| 1788472104 | 27.22° C | 81% | 1014.9 hPa | 0 mm | - | 81 W/m² | - |
| 1788471813 | 27.22° C | 82% | 1014.6 hPa | 0 mm | - | 77 W/m² | - |
| 1788471494 | 27.22° C | 83% | 1014.8 hPa | 0 mm | - | 62 W/m² | - |
| 1788471190 | 27.78° C | 82% | 1014.7 hPa | 0 mm | - | 91 W/m² | - |
| 1788470885 | 28.33° C | 80% | 1014.7 hPa | 0 mm | - | 117 W/m² | - |
| 1788470582 | 28.33° C | 81% | 1014.6 hPa | 0 mm | - | 104 W/m² | - |
| 1788470281 | 28.33° C | 81% | 1014.7 hPa | 0 mm | - | 158 W/m² | - |
| 1788469977 | 28.33° C | 82% | 1014.5 hPa | 0 mm | - | 226 W/m² | - |
| 1788469673 | 28.33° C | 82% | 1014.7 hPa | 0 mm | - | 122 W/m² | - |
* Rain latest hour (hover to see other rain measurements)
** Current wind speed in m/s (hover to see current wind gust speed)